Location: Dammartin
(48.9032°N, 1.6195°E)
Time: 22:25:57
(UTC+00:00)

YUBILEINY - Pass Details

Date: 11 December 2023
Orbit: 1479 x 1508 km, 82.5° (Epoch: 04 March)

Event Time Altitude Azimuth Distance (km) Brightness Sun altitude
Rises 06:27:06 0° 124° (SE) 4,635 ? -10.8°
Reaches altitude 10° 06:31:27 10° 105° (ESE) 3,654 ? -10.2°
Maximum altitude 06:36:10 16° 71° (ENE) 3,201 ? -9.5°
Drops below altitude 10° 06:40:53 10° 38° (NE) 3,654 ? -8.7°
Sets 06:45:11 0° 19° (NNE) 4,633 ? -8.1°
